Showing default

VSP RF C1, 59136

Orbit data source: Space-Track

VSP RF C1, 59136 is a payload satellite owned by Aerospacelab (BE) in SSO that was launched on Mon, 04 Mar 2024 UTC via an FALCON 9 launch vehicle from the Air Force Western Test Range (AFWTR). Payload-class satellites include a variety of spacecraft equipped with specific instruments for various scientific and technological missions. These include communications satellites like Starlink; space stations such as the ISS; scientific satellites like the Hubble; Earth observation satellites from companies like Planet Labs, Umbra, and HawkEye 360; GPS; miniature CubeSats for education and research; and military/defense satellites.

Loading next visibility...
Identifier
59136, 2024-043AQ
Orbit
SSO
Country
Flag of BEBE / BEL
Related business
Manufacturer
Aerospacelab
Mission
Operational Commercial Sigint
Bus & Motor
AEROSP, Unknown motor
Mass
~200 kg wet, ~200 kg dry
Launch date (UTC)
2024-03-04 (3 years ago)
Launch vehicle
FALCON 9
Launch site
Air Force Western Test Range (AFWTR)
Object type
Payload
Rocket body
Debris
Shape & HBR
Box + 2 Pan, 1.0 m
Radar Cross Section
0.963 m², Large (>1 m²)

Expand to show TLE details & history
Last TLE update: 8 hours ago

TLE from 8 hours ago
0 VSP RF C1
1 59136U 24043AQ  26254.65280221  .00003074  00000-0  11638-3 0  9998
2 59136  97.5734  33.9753 0001162  85.6936 274.4436 15.27711621140297
Epoch: 2026-09-11T15:40Z
TLE epoch observation values (Epoch: 2026-09-11T15:40:02.110Z)
Latitude
-0.00001°
Longitude
168.29343°
Altitude
485.689 km
Speed
7.622 km/s
True Right ascension
02h 15m 54s
True Declination
0° 00' 00"
Sunlit
Object was in full shadow at epoch
Visualization orbit readout
Latitude
Unknown
Longitude
Unknown
Altitude
Unknown
Speed
Unknown
Apparent Right ascension
Unknown
Apparent Declination
Unknown
Sunlit
N/A
Visualization observer readout
Local Sidereal Time
15:42:41
Azimuth
Unknown
Elevation
Unknown
Doppler factor
Unknown
Orbital elements
Apogee altitude
480.415 km
Perigee altitude
478.821 km
Semi-major axis
6,857.755 km
Eccentricity
0.00012
Inclination
97.5734°
RAAN
33.9753°
Arg. of periapsis
85.6936°
True anomaly
274.43032°
Mean anomaly
274.4436°
Eccentric anomaly
274.43696°
Mean motion
3.82182 °/min
Orbital period
94.2 mins
BSTAR
0.00011638
Loading maneuver chart data...
Computing Atmospheric mass density...
Loading historical data...
Loading historical data...
Loading historical data...
Loading historical data...
Loading historical data...
Loading historical data...
Loading historical data...

Documentation

Showing up to 5 results
|